PulseSat

PulseSat

GSAT0218 (PRN E31)

Last updated on Jan. 16, 2019, 2:58 a.m. UTC

1 43058U 17079D   19015.14185608 -.00000026  00000-0  00000+0 0  9991
2 43058  56.6820 296.0190 0004305 271.2786  88.7089  1.70473497  6784
UTC
Height (km)
Latitude
Longitude
Inclination
Orbital Period

Next 30 passes for location: Hong Kong

Rise time Rise Azimuth (degrees) Set time Set Azimuth (degrees) Duration Max altitude (degrees)

No matching passes for this satellites

PulseSat

PulseSat is the new satellites software and hardware trackering solution by Pulsely.
Satellite Two Line Element Set source: US Air Force Space Command

Download PulseSat for iOS
© 2017 Pulsely Limited